Location: El Centro
(32.7920°N, 115.5620°W)
Time: 22:29:17
(UTC-07:00)

Hamsat - Visible Passes

Search period start: 05 May 2016 00:00
Search period end: 15 May 2016 00:00
Orbit: 586 x 621 km, 97.6° (Epoch: 04 May)

Date Brightness Start Highest point End Pass type
(mag) Time Alt. Az. Time Alt. Az. Time Alt. Az.
05 May ? 04:11:12 10° E 04:12:04 11° E 04:12:56 10° ESE visible
06 May ? 04:21:48 10° ENE 04:24:18 15° E 04:26:49 10° SE visible
07 May ? 04:33:15 10° NE 04:36:31 21° E 04:39:48 10° SE visible
08 May ? 04:44:58 10° NE 04:48:43 30° E 04:52:29 10° SSE visible
09 May ? 04:56:50 10° NNE 05:00:53 42° E 05:04:58 10° S visible
10 May ? 05:08:49 10° NNE 05:13:03 61° E 05:17:18 10° S visible
13 May ? 04:12:00 10° ENE 04:13:27 11° E 04:14:54 10° ESE visible
14 May ? 04:22:57 10° NE 04:25:40 16° E 04:28:24 10° SE visible
